Flag for Ireland Weather past 2 weeks in Cork, Ireland

Now
49 °F

Low clouds.


Feels Like: 48 °F
Forecast: 39 / 57 °F
Wind: 3 mph from Northwest

Location: Cork Airport

Current Time: May 26, 2015 at 7:16:31 AM

Latest Report: May 26, 2015 at 6:00 AM


Visibility: 25 mi

Pressure: 30.32 "Hg

Humidity: 93%

Dew point: 47 °F

Location of CorkLocation

Historic Weather in Cork — Graph

°F

Cork temperature yesterday

Maximum temperature yesterday: 62 °F (at 1:00 PM)
Minimum temperature yesterday: 48 °F (at 1:00 AM)
Average temperature yesterday: 54 °F

Past Weeks' High & Low Weather Summary

 TemperatureHumidityPressure
High64 °F (May 22, 4:00 PM)100% (May 14, 2:00 AM)30.42 "Hg (May 14, 2:00 AM)
Low41 °F (May 19, 6:00 AM)47% (May 16, 5:00 PM)29.60 "Hg (May 14, 7:00 AM)
Average51 °F82%30.12 "Hg
* Reported May 11 6:00 AM — May 26 6:00 AM, Cork, Weather by CustomWeather, © 2015

Note: Actual official high and low records may vary slightly from our data, if they occured in-between our weather recording intervals... More about our weather records

Advertising

Cork weather history for previous 24 hours

 ConditionsComfort  
Time TempWeatherWind HumidityBarometerVisibility
6:00 AM
Tue, May 26
49 °FLow clouds.3 mph93%30.32 "Hg25 mi
5:00 AM49 °FOvercast.3 mph93%30.31 "Hg19 mi
3:00 AM48 °FLow clouds.5 mph91%30.32 "Hg19 mi
2:00 AM49 °FLow clouds.8 mph90%30.32 "Hg19 mi
1:00 AM49 °FLow clouds.6 mph92%30.32 "Hg19 mi
12:00 AM49 °FLow clouds.10 mph91%30.32 "Hg19 mi
11:00 PM
Mon, May 25
50 °FLow clouds.8 mph89%30.31 "Hg19 mi
10:00 PM50 °FOvercast.9 mph88%30.29 "Hg19 mi
9:00 PM51 °FScattered clouds.8 mph85%30.27 "Hg28 mi
8:00 PM54 °FOvercast.9 mph81%30.26 "Hg28 mi
7:00 PM55 °FPartly sunny.10 mph77%30.24 "Hg31 mi
6:00 PM56 °FPartly sunny.9 mph78%30.23 "Hg37 mi
5:00 PM59 °FPassing clouds.9 mph69%30.21 "Hg37 mi
4:00 PM60 °FScattered clouds.10 mph67%30.20 "Hg37 mi
3:00 PM60 °FScattered clouds.10 mph68%30.20 "Hg37 mi
2:00 PM60 °FPartly sunny.9 mph67%30.20 "Hg37 mi
1:00 PM62 °FOvercast.9 mph68%30.19 "Hg37 mi
12:00 PM61 °FPartly sunny.8 mph70%30.18 "Hg37 mi
11:00 AM59 °FOvercast.8 mph79%30.18 "Hg31 mi
10:00 AM56 °FLow clouds.7 mph88%30.19 "Hg28 mi
9:00 AM54 °FLow clouds.6 mph91%30.19 "Hg22 mi
8:00 AM52 °FOvercast.3 mph91%30.20 "Hg19 mi
7:00 AM50 °FOvercast.2 mph89%30.20 "Hg22 mi
Weather by CustomWeather, © 2015

See weather overviewHow to use our weather pages